<?xml version="1.0" encoding="UTF-8" standalone="no" ?>
<gpx xmlns="http://www.topografix.com/GPX/1/1" xmlns:xsi="http://www.w3.org/2001/XMLSchema-instance" xsi:schemaLocation="http://www.topografix.com/GPX/1/1 http://www.topografix.com/GPX/1/1/gpx.xsd" version="1.1" creator="VisuGPX - https://www.visugpx.com">
  <metadata>
    <name>En suivant le GRP de l\'Orvanne de Dollot à Villeneuve-la-Dondagre</name>
    <desc><![CDATA[Suivons la branche Orvanne du GRP du Bocage gâtinais de Dollot à Villeneuve-la-Dondagre]]></desc>
  </metadata>
  <trk>
    <name><![CDATA[Orvanne3]]></name>
    <trkseg>
      <trkpt lat="48.21242" lon="3.07463">
        <ele>131</ele>
        <time>2011-02-02T17:54:00Z</time>
      </trkpt>
      <trkpt lat="48.21188" lon="3.07556">
        <ele>132</ele>
        <time>2011-02-02T17:54:00Z</time>
      </trkpt>
      <trkpt lat="48.2112" lon="3.07562">
        <ele>133</ele>
        <time>2011-02-02T17:54:00Z</time>
      </trkpt>
      <trkpt lat="48.20753" lon="3.07759">
        <ele>135.536316</ele>
        <time>2011-02-02T17:54:00Z</time>
      </trkpt>
      <trkpt lat="48.20613" lon="3.07871">
        <ele>137.047623</ele>
        <time>2011-02-02T17:54:00Z</time>
      </trkpt>
      <trkpt lat="48.20663" lon="3.08107">
        <ele>137.104752</ele>
        <time>2011-02-02T17:54:00Z</time>
      </trkpt>
      <trkpt lat="48.2002" lon="3.08394">
        <ele>139.347504</ele>
        <time>2011-02-02T17:54:00Z</time>
      </trkpt>
      <trkpt lat="48.19953" lon="3.0838">
        <ele>140.209122</ele>
      </trkpt>
      <trkpt lat="48.19921" lon="3.08477">
        <ele>143.231689</ele>
        <time>2011-02-02T17:54:00Z</time>
      </trkpt>
      <trkpt lat="48.20033" lon="3.08596">
        <ele>138</ele>
        <time>2011-02-02T17:54:00Z</time>
      </trkpt>
      <trkpt lat="48.20145" lon="3.08604">
        <ele>142.777939</ele>
        <time>2011-02-02T17:54:00Z</time>
      </trkpt>
      <trkpt lat="48.20231" lon="3.08841">
        <ele>157.002502</ele>
        <time>2011-02-02T17:54:00Z</time>
      </trkpt>
      <trkpt lat="48.20068" lon="3.09057">
        <ele>159</ele>
        <time>2011-02-02T17:54:00Z</time>
      </trkpt>
      <trkpt lat="48.20038" lon="3.09181">
        <ele>157.867065</ele>
        <time>2011-02-02T17:54:00Z</time>
      </trkpt>
      <trkpt lat="48.19973" lon="3.0918">
        <ele>155.093628</ele>
        <time>2011-02-02T17:54:00Z</time>
      </trkpt>
      <trkpt lat="48.1978" lon="3.09456">
        <ele>151.239182</ele>
        <time>2011-02-02T17:54:00Z</time>
      </trkpt>
      <trkpt lat="48.19668" lon="3.09731">
        <ele>149.783508</ele>
      </trkpt>
      <trkpt lat="48.19532" lon="3.10186">
        <ele>148.581879</ele>
        <time>2011-02-02T17:54:00Z</time>
      </trkpt>
      <trkpt lat="48.1943" lon="3.10336">
        <ele>152</ele>
        <time>2011-02-02T17:54:00Z</time>
      </trkpt>
      <trkpt lat="48.19343" lon="3.10526">
        <ele>157.005005</ele>
        <time>2011-02-02T17:54:00Z</time>
      </trkpt>
      <trkpt lat="48.19326" lon="3.10502">
        <ele>155.275375</ele>
      </trkpt>
      <trkpt lat="48.19107" lon="3.10546">
        <ele>150.134445</ele>
        <time>2011-02-02T17:54:00Z</time>
      </trkpt>
      <trkpt lat="48.19059" lon="3.10418">
        <ele>149.620316</ele>
        <time>2011-02-02T17:54:00Z</time>
      </trkpt>
      <trkpt lat="48.18975" lon="3.1045">
        <ele>151.676132</ele>
        <time>2011-02-02T17:54:00Z</time>
      </trkpt>
      <trkpt lat="48.18933" lon="3.10661">
        <ele>148.351257</ele>
      </trkpt>
      <trkpt lat="48.18863" lon="3.10798">
        <ele>149.108627</ele>
        <time>2011-02-02T17:54:00Z</time>
      </trkpt>
      <trkpt lat="48.18882" lon="3.10903">
        <ele>149.090256</ele>
        <time>2011-02-02T17:54:00Z</time>
      </trkpt>
      <trkpt lat="48.18621" lon="3.11037">
        <ele>157</ele>
        <time>2011-02-02T17:54:00Z</time>
      </trkpt>
      <trkpt lat="48.18379" lon="3.11275">
        <ele>153.151871</ele>
        <time>2011-02-02T17:54:00Z</time>
      </trkpt>
      <trkpt lat="48.18357" lon="3.11456">
        <ele>154.779495</ele>
        <time>2011-02-02T17:54:00Z</time>
      </trkpt>
      <trkpt lat="48.18266" lon="3.11589">
        <ele>153.180756</ele>
        <time>2011-02-02T17:54:00Z</time>
      </trkpt>
      <trkpt lat="48.18266" lon="3.11633">
        <ele>153.570755</ele>
        <time>2011-02-02T17:54:00Z</time>
      </trkpt>
      <trkpt lat="48.17972" lon="3.11881">
        <ele>160</ele>
        <time>2011-02-02T17:54:00Z</time>
      </trkpt>
      <trkpt lat="48.1746" lon="3.11823">
        <ele>174.048752</ele>
        <time>2011-02-02T17:54:00Z</time>
      </trkpt>
      <trkpt lat="48.17224" lon="3.11846">
        <ele>170.798752</ele>
        <time>2011-02-02T17:54:00Z</time>
      </trkpt>
      <trkpt lat="48.17207" lon="3.11748">
        <ele>172</ele>
        <time>2011-02-02T17:54:00Z</time>
      </trkpt>
      <trkpt lat="48.16971" lon="3.11963">
        <ele>171.848755</ele>
        <time>2011-02-02T17:54:00Z</time>
      </trkpt>
      <trkpt lat="48.16774" lon="3.12273">
        <ele>172</ele>
        <time>2011-02-02T17:54:00Z</time>
      </trkpt>
      <trkpt lat="48.16717" lon="3.12282">
        <ele>172.95369</ele>
        <time>2011-02-02T17:54:00Z</time>
      </trkpt>
      <trkpt lat="48.16672" lon="3.12056">
        <ele>172</ele>
        <time>2011-02-02T17:54:00Z</time>
      </trkpt>
      <trkpt lat="48.1646" lon="3.12114">
        <ele>173</ele>
        <time>2011-02-02T17:54:00Z</time>
      </trkpt>
      <trkpt lat="48.16329" lon="3.12159">
        <ele>174</ele>
      </trkpt>
      <trkpt lat="48.16171" lon="3.12291">
        <ele>173.160995</ele>
        <time>2011-02-02T17:54:00Z</time>
      </trkpt>
      <trkpt lat="48.15983" lon="3.12194">
        <ele>172</ele>
        <time>2011-02-02T17:54:00Z</time>
      </trkpt>
      <trkpt lat="48.15897" lon="3.12209">
        <ele>172</ele>
        <time>2011-02-02T17:54:00Z</time>
      </trkpt>
      <trkpt lat="48.15835" lon="3.12131">
        <ele>173.699997</ele>
        <time>2011-02-02T17:54:00Z</time>
      </trkpt>
      <trkpt lat="48.15841" lon="3.1193">
        <ele>174</ele>
        <time>2011-02-02T17:54:00Z</time>
      </trkpt>
      <trkpt lat="48.15779" lon="3.11801">
        <ele>174</ele>
        <time>2011-02-02T17:54:00Z</time>
      </trkpt>
      <trkpt lat="48.15399" lon="3.12058">
        <ele>172</ele>
        <time>2011-02-02T17:54:00Z</time>
      </trkpt>
      <trkpt lat="48.14942" lon="3.12494">
        <ele>175.750626</ele>
        <time>2011-02-02T17:54:00Z</time>
      </trkpt>
      <trkpt lat="48.14867" lon="3.12359">
        <ele>175</ele>
        <time>2011-02-02T17:54:00Z</time>
      </trkpt>
      <trkpt lat="48.14602" lon="3.12247">
        <ele>174.088882</ele>
        <time>2011-02-02T17:54:00Z</time>
      </trkpt>
      <trkpt lat="48.14188" lon="3.12033">
        <ele>170.649994</ele>
        <time>2011-02-02T17:54:00Z</time>
      </trkpt>
      <trkpt lat="48.13975" lon="3.11976">
        <ele>172.099869</ele>
        <time>2011-02-02T17:54:00Z</time>
      </trkpt>
      <trkpt lat="48.13946" lon="3.11932">
        <ele>172.75</ele>
        <time>2011-02-02T17:54:00Z</time>
      </trkpt>
      <trkpt lat="48.13725" lon="3.11908">
        <ele>175.667938</ele>
        <time>2011-02-02T17:54:00Z</time>
      </trkpt>
      <trkpt lat="48.13686" lon="3.12126">
        <ele>174.698746</ele>
        <time>2011-02-02T17:54:00Z</time>
      </trkpt>
      <trkpt lat="48.13736" lon="3.12349">
        <ele>175.860443</ele>
        <time>2011-02-02T17:54:00Z</time>
      </trkpt>
      <trkpt lat="48.13665" lon="3.12576">
        <ele>177</ele>
        <time>2011-02-02T17:54:00Z</time>
      </trkpt>
      <trkpt lat="48.13686" lon="3.12818">
        <ele>178</ele>
        <time>2011-02-02T17:54:00Z</time>
      </trkpt>
      <trkpt lat="48.13775" lon="3.12944">
        <ele>175.129257</ele>
        <time>2011-02-02T17:54:00Z</time>
      </trkpt>
      <trkpt lat="48.13635" lon="3.13297">
        <ele>176.126129</ele>
        <time>2011-02-02T17:54:00Z</time>
      </trkpt>
      <trkpt lat="48.13628" lon="3.13365">
        <ele>177.851746</ele>
      </trkpt>
      <trkpt lat="48.1378" lon="3.13565">
        <ele>184.399994</ele>
        <time>2011-02-02T17:54:00Z</time>
      </trkpt>
      <trkpt lat="48.13831" lon="3.13572">
        <ele>186.899994</ele>
        <time>2011-02-02T17:54:00Z</time>
      </trkpt>
      <trkpt lat="48.13849" lon="3.1363">
        <ele>187.350006</ele>
        <time>2011-02-02T17:54:00Z</time>
      </trkpt>
    </trkseg>
  </trk>
</gpx>